ASTRA 1D 1 23331U 94070A 21019.02989111 -.00000269 00000-0 00000+0 0 9993 2 23331 9.4003 40.9405 0003489 260.7648 114.7128 1.00272859 96361 AMC-1 (GE-1) 1 24315U 96054A 21018.65952028 .00000065 00000-0 00000-0 0 9999 2 24315 4.4240 77.2285 0003263 213.8823 293.6653 1.00272098 26510 AMC-3 (GE-3) 1 24936U 97050A 21019.10194809 -.00000259 00000-0 00000+0 0 9996 2 24936 3.3090 84.0376 0002978 208.0615 151.2905 1.00272159 85640 NSS-5 1 24957U 97053A 21018.74841208 .00000104 00000-0 00000-0 0 9992 2 24957 6.3995 62.5823 0003665 226.8281 148.8422 1.00271299 85368 ASTRA 1G 1 25071U 97076A 21018.69301894 .00000145 00000-0 00000-0 0 9996 2 25071 5.0893 71.9217 0004205 208.0103 124.9199 1.00046917 84740 ASTRA 2A 1 25462U 98050A 21018.83478937 .00000150 00000-0 00000-0 0 9998 2 25462 2.1411 90.9723 0002165 205.9013 150.0891 1.00276439 26525 AMC-4 (GE-4) 1 25954U 99060A 21019.15994535 .00000091 00000-0 00000+0 0 9992 2 25954 0.2486 97.4300 0002683 203.2693 100.7241 1.00272227 77680 ASTRA 2B 1 26494U 00054A 21018.83304466 .00000116 00000-0 00000-0 0 9998 2 26494 4.9912 72.5227 0004977 221.7994 143.5662 1.00270985 27084 NSS-11 (AAP-1) 1 26554U 00059A 21018.79247990 .00000027 00000-0 00000-0 0 9994 2 26554 0.0128 6.6942 0002619 284.4113 288.5644 1.00271165 21499 AMC-6 (GE-6) 1 26580U 00067A 21018.72968005 .00000106 00000-0 00000-0 0 9990 2 26580 0.0562 285.3963 0002697 15.8702 300.7425 1.00274216 74116 ASTRA 2D 1 26638U 00081A 21018.76880213 .00000062 00000-0 00000+0 0 9998 2 26638 6.2256 63.5229 0002280 247.3894 141.4967 1.00268752 73580 AMC-8 (GE-8) 1 26639U 00081B 21018.65864792 .00000089 00000-0 00000-0 0 9991 2 26639 1.1767 93.8779 0002908 210.0048 276.4955 1.00272304 73521 ASTRA 2C 1 26853U 01025A 21018.83391701 .00000136 00000-0 00000-0 0 9996 2 26853 3.3341 83.8127 0002872 209.3098 149.2043 1.00270243 25233 ASTRA 3A 1 27400U 02015B 21019.09898206 -.00000203 00000-0 00000+0 0 9991 2 27400 6.3474 62.3177 0001642 232.3913 132.8211 1.00274441 68916 NSS-7 1 27414U 02019A 21018.82519341 -.00000158 00000-0 00000-0 0 9990 2 27414 4.7185 75.2554 0002537 230.4646 89.7643 1.00271155 68750 NSS-6 1 27603U 02057A 21018.79535869 .00000110 00000-0 00000+0 0 9997 2 27603 0.3368 97.6090 0004219 195.3315 302.2797 1.00274310 66228 AMC-11 (GE-11) 1 28252U 04017A 21018.65952028 .00000071 00000-0 00000-0 0 9998 2 28252 0.0377 302.3106 0002796 9.2029 273.1723 1.00272393 61075 AMC-15 1 28446U 04041A 21018.66466722 -.00000087 00000-0 00000-0 0 9990 2 28446 0.0158 15.0633 0002836 292.7408 304.6831 1.00272419 59510 AMC-16 1 28472U 04048A 21018.81219525 -.00000204 00000-0 00000-0 0 9991 2 28472 0.0468 290.0415 0002755 12.8276 22.9192 1.00271178 58914 NSS-10 (AMC-12) 1 28526U 05003A 21018.82170399 -.00000249 00000-0 00000-0 0 9998 2 28526 1.5302 92.6080 0002955 198.7298 85.4329 1.00270672 33345 ASTRA 1KR 1 29055U 06012A 21018.38174310 .00000120 00000-0 00000+0 0 9991 2 29055 0.0265 276.2127 0004459 349.2388 9.1231 1.00270494 53935 AMC-18 1 29644U 06054B 21018.81263144 -.00000213 00000-0 00000-0 0 9998 2 29644 0.0253 310.0154 0002203 352.6849 25.2476 1.00273628 51758 ASTRA 1L 1 31306U 07016A 21018.38174310 .00000120 00000-0 00000-0 0 9999 2 31306 0.0356 331.0086 0004853 328.2054 335.3737 1.00271377 25224 ASTRA 4A (SIRIUS 4) 1 32299U 07057A 21019.01243678 .00000035 00000-0 00000+0 0 9995 2 32299 0.0240 326.3502 0002492 329.1250 192.4063 1.00272029 48159 AMC-21 1 33275U 08038B 21018.66065435 .00000038 00000-0 00000-0 0 9997 2 33275 0.0368 296.3372 0002397 11.3322 283.5249 1.00273032 45688 ASTRA 1M 1 33436U 08057A 21018.83295742 .00000122 00000-0 00000-0 0 9996 2 33436 0.0319 106.7309 0001156 132.8511 197.8831 1.00270704 25920 CIEL-2 1 33453U 08063A 21018.94704150 .00000061 00000-0 00000+0 0 9993 2 33453 0.0128 235.1471 0002984 73.0169 22.4592 1.00272531 44332 NSS-9 1 33749U 09008A 21018.79387568 .00000074 00000-0 00000+0 0 9998 2 33749 0.0352 301.7688 0002073 357.5799 287.9016 1.00273496 43752 SES-7 (PROTOSTAR 2) 1 34941U 09027A 21018.85510394 -.00000343 00000-0 00000-0 0 9997 2 34941 0.0179 77.0892 0002395 198.1620 259.2880 1.00271419 42813 NSS-12 1 36032U 09058A 21018.78660553 .00000073 00000-0 00000-0 0 9998 2 36032 0.0116 10.3518 0002710 291.8307 156.3624 1.00272096 41113 SES-1 1 36516U 10016A 21019.09610328 -.00000111 00000-0 00000+0 0 9994 2 36516 0.0191 72.7004 0002391 227.9715 111.6080 1.00271986 39331 ASTRA 3B 1 36581U 10021A 21019.12096554 .00000140 00000-0 00000+0 0 9996 2 36581 0.0308 34.5556 0002530 285.1875 226.0364 1.00274562 38843 SES-3 1 37748U 11035A 21019.09575433 -.00000099 00000-0 00000+0 0 9996 2 37748 0.0573 290.6416 0002918 25.6987 93.8005 1.00273633 34895 ASTRA 1N 1 37775U 11041A 21018.68944226 .00000121 00000-0 00000-0 0 9993 2 37775 0.0436 40.2702 0003208 314.3482 31.0455 1.00270898 24714 SES-2 1 37809U 11049A 21018.81175907 -.00000193 00000-0 00000-0 0 9996 2 37809 0.0602 280.7075 0002861 22.1881 20.7383 1.00271675 34150 QUETZSAT 1 1 37826U 11054A 21018.81385273 -.00000239 00000-0 00000-0 0 9991 2 37826 0.0264 323.7286 0002651 332.5596 38.1031 1.00273318 30080 SES-4 1 38087U 12007A 21018.82475723 -.00000166 00000-0 00000-0 0 9990 2 38087 0.0083 17.0794 0002421 274.5648 101.6834 1.00269613 32435 SES-5 1 38652U 12036A 21019.01243678 .00000036 00000-0 00000+0 0 9998 2 38652 0.0333 77.7311 0001902 220.8305 189.4953 1.00272927 31264 ASTRA 2F 1 38778U 12051A 21018.83478937 .00000152 00000-0 00000-0 0 9991 2 38778 0.0834 244.7652 0003576 10.0717 192.2795 1.00270868 21300 SES-6 1 39172U 13026A 21018.82109332 -.00000259 00000-0 00000-0 0 9991 2 39172 0.0607 286.4283 0001967 358.2478 88.8219 1.00271584 27913 O3B FM5 1 39188U 13031A 21018.33489390 -.00000025 00000-0 00000-0 0 9996 2 39188 0.0597 19.7954 0002860 264.8615 75.3063 5.00115856138181 O3B FM4 1 39189U 13031B 21018.80044879 -.00000024 00000-0 00000-0 0 9997 2 39189 0.0450 353.5191 0004306 326.0324 40.4117 5.00116002138229 O3B FM2 1 39190U 13031C 21018.65282105 -.00000024 00000-0 00000-0 0 9998 2 39190 0.0448 346.8013 0007021 349.0668 24.0940 5.00115673138280 O3B PFM 1 39191U 13031D 21018.90627929 -.00000024 00000-0 00000+0 0 9993 2 39191 0.0527 13.9065 0003210 280.5174 65.5378 5.00115630138294 ASTRA 2E 1 39285U 13056A 21018.83487662 .00000152 00000-0 00000-0 0 9996 2 39285 0.0658 43.2252 0002678 263.7035 140.5396 1.00272377 26640 SES-8 1 39460U 13071A 21018.99142002 -.00000267 00000-0 00000+0 0 9998 2 39460 0.0625 257.8325 0001269 87.8311 224.8287 1.00271013 26067 ASTRA 5B 1 39617U 14011B 21018.69188486 .00000156 00000-0 00000-0 0 9997 2 39617 0.0286 42.3432 0003402 257.6978 98.8134 1.00273789 24854 O3B FM3 1 40079U 14038A 21018.18773746 -.00000025 00000-0 00000+0 0 9998 2 40079 0.0485 1.9726 0002040 236.6046 121.3978 5.00115594119267 O3B FM7 1 40080U 14038B 21018.33411782 -.00000025 00000-0 00000+0 0 9996 2 40080 0.0504 357.1886 0004316 313.3112 49.4575 5.00115674119306 O3B FM6 1 40081U 14038C 21018.56011826 -.00000024 00000-0 00000-0 0 9997 2 40081 0.0475 1.5445 0002760 294.7421 63.6801 5.00115814118991 O3B FM8 1 40082U 14038D 21018.61394187 -.00000024 00000-0 00000-0 0 9998 2 40082 0.0453 358.7001 0002603 299.6444 61.6243 5.00115331119115 O3B FM10 1 40348U 14083A 21017.64085803 -.00000026 00000-0 00000-0 0 9999 2 40348 0.0477 12.4089 0002601 283.5237 64.0353 5.00115703111019 O3B FM11 1 40349U 14083B 21018.65348367 -.00000024 00000-0 00000-0 0 9997 2 40349 0.0522 10.3922 0003336 287.0710 62.4980 5.00115766111089 O3B FM12 1 40350U 14083C 21018.72104402 -.00000024 00000-0 00000-0 0 9997 2 40350 0.0512 9.7390 0002802 290.9831 59.2454 5.00115663111092 O3B FM9 1 40351U 14083D 21018.10754254 -.00000025 00000-0 00000-0 0 9997 2 40351 0.0533 10.3414 0002680 285.6579 63.9680 5.00115249111212 ASTRA 2G 1 40364U 14089A 21019.12965566 .00000153 00000-0 00000+0 0 9990 2 40364 0.0375 327.1615 0002211 53.8493 172.5935 1.00273836 22216 SES-9 1 41380U 16013A 21018.77757817 -.00000343 00000-0 00000-0 0 9999 2 41380 0.0476 262.4120 0000713 138.6801 105.4979 1.00271304 17630 SES-10 1 42432U 17017A 21019.10290767 -.00000270 00000-0 00000+0 0 9995 2 42432 0.0052 42.4162 0002773 260.3889 146.0377 1.00269878 13933 SES-15 1 42709U 17026A 21019.09052016 .00000063 00000-0 00000+0 0 9992 2 42709 0.0124 40.7633 0000474 239.0724 102.2748 1.00270557 14383 SES-11 (ECHOSTAR 105) 1 42967U 17063A 21018.66466722 -.00000087 00000-0 00000-0 0 9992 2 42967 0.0159 65.9563 0002532 218.1866 328.4661 1.00269845 11976 SES-14 1 43175U 18012B 21019.16368924 -.00000275 00000-0 00000+0 0 9998 2 43175 0.0173 56.4213 0000975 242.0129 191.7331 1.00271345 11252 O3B FM15 1 43231U 18024A 21018.97372140 -.00000024 00000-0 00000+0 0 9999 2 43231 0.0448 14.6582 0002943 279.6549 65.6514 5.00115491 52377 O3B FM16 1 43232U 18024B 21018.62723484 -.00000024 00000-0 00000-0 0 9994 2 43232 0.0419 18.6683 0002976 275.5989 65.6967 5.00115468 52119 O3B FM14 1 43233U 18024C 21018.66715541 -.00000024 00000-0 00000-0 0 9994 2 43233 0.0405 19.5346 0003110 277.1370 63.2917 5.00115904 52118 O3B FM13 1 43234U 18024D 21018.48087360 -.00000025 00000-0 00000-0 0 9997 2 43234 0.0687 17.7028 0005123 252.1027 90.1309 5.00115768 52231 SES-12 1 43488U 18049A 21018.83868861 -.00000267 00000-0 00000-0 0 9995 2 43488 0.0167 52.7538 0002188 223.1521 239.4487 1.00271048 9625 O3B FM20 1 44112U 19020A 21018.69337433 -.00000024 00000-0 00000-0 0 9991 2 44112 0.0472 11.7488 0003291 279.4225 68.7886 5.00115647 32740 O3B FM19 1 44113U 19020B 21011.68460623 -.00000022 00000-0 00000-0 0 9990 2 44113 0.0755 31.8327 0003469 233.1078 95.0160 5.00115609 32241 O3B FM17 1 44114U 19020C 21018.80044304 -.00000024 00000-0 00000-0 0 9998 2 44114 0.0295 358.9980 0002975 293.2072 67.7584 5.00116098 32699 O3B FM18 1 44115U 19020D 21018.54746805 -.00000024 00000-0 00000-0 0 9995 2 44115 0.0477 12.0384 0002845 283.3253 64.6020 5.00115559 32811